www.pogodaiklimat.ru

Погода и климат >> Архив погоды >> Буркина-Фасо >> Fada N`Gourma


ПОГОДА в Fada N`Gourma

  • Прогноз погоды в Fada N`Gourma
  • Монитор погоды в Fada N`Gourma
  • Климат города

АРХИВ ПОГОДЫ в Fada N`Gourma

Время (UTC), дата Ветер
(напр.,м/с)
 
Видим.   Явления Облачность Т
(С)
Тd
(С)
f
(%)
Тe
(С)
Тes
(С)
Комфортность P
(гПа)
Po
(гПа)
Тmin
(С)
Tmax
(С)
R
(мм)
S
(см)
09 17.02 СВ 5 3000 м пыль 9/0
[Ci sp]
+27.3 -4.2 12 +24 +28 комфорт 1015.2 980.7
12 17.02 СВ 6 3000 м пыль 9/0
[Ci sp]
+32.9 -4.5 9 +29 +35 жарко 1013.4 979.1
15 17.02 СВ 7 3000 м пыль 9/0
[Ci sp]
+34.5 -6.0 7 +30 +32 жарко 1010.8 976.5
18 17.02 СВ 3 3000 м пыль 9/0
[Ci sp]
+31.5 -5.3 9 +28 +28 жарко 1011.4 976.9 +35.0
00 18.02 СВ 2 4000 м пыль 9/0
[Ci sp]
+23.5 -3.2 17 +22 +22 комфорт 1014.2 979.6
03 18.02 СВ 4 4000 м пыль 9/0
[Ci sp]
+23.4 -6.1 13 +21 +21 комфорт 1013.4 979.0
06 18.02 СВ 4 4000 м пыль 9/0
[Ci sp]
+21.9 -6.0 15 +21 +21 комфорт 1014.2 979.5 +21.9
09 18.02 СВ 5 2000 м пыль 9/0
[Ci sp]
+26.2 -7.1 11 +23 +27 комфорт 1015.4 980.6
12 18.02 СВ 7 2000 м пыль 9/0
[Ci sp]
+31.4 -11.4 6 +27 +31 жарко 1013.4 978.8
15 18.02 СВ 3 8000 м пыль 9/0
[Ci sp]
+33.6 -6.2 7 +29 +35 жарко 1010.7 976.4
18 18.02 СВ 4 8000 м пыль 9/0
[Ci sp]
+30.6 -6.6 8 +27 +27 жарко 1011.5 976.9 +33.9
00 19.02 СВ 2 8000 м пыль 9/0
[Ci sp]
+21.9 -2.6 19 +21 +21 комфорт 1014.1 979.4
03 19.02 С 2 8000 м пыль 9/0
[Ci sp]
+19.7 -2.4 22 +20 +20 1013.6 979.0
06 19.02 СВ 2 6000 м пыль 9/0
[Ci sp]
+18.6 -4.0 21 +19 +19 1015.0 980.0 +18.4
09 19.02 СВ 6 2000 м пыль 9/0
[Ci sp]
+25.4 -9.4 9 +22 +25 комфорт 1016.3 981.4
12 19.02 СВ 5 2000 м пыль 9/0
[Ci sp]
+30.9 -6.2 9 +27 +35 жарко 1014.1 979.4
15 19.02 СВ 2 4000 м пыль 9/0
[Ci sp]
+33.6 -6.9 7 +29 +37 жарко 1010.7 976.1
18 19.02 СВ 2 4000 м пыль 9/0
[Ci sp]
+31.1 -4.3 10 +27 +27 жарко 1010.5 975.8 +34.4
00 20.02 СВ 2 4000 м пыль 9/0
[Ci sp]
+22.0 -2.4 19 +21 +21 комфорт 1013.3 978.6
03 20.02 СВ 2 4000 м пыль 9/0
[Ci sp]
+20.2 -3.9 19 +21 +21 комфорт 1011.6 977.1
06 20.02 СВ 3 4000 м пыль 9/0
[Ci sp]
+18.7 -3.3 22 +19 +19 1012.7 977.9 +18.6
09 20.02 СВ 4 4000 м пыль 9/0
[Ci sp]
+27.0 -6.3 11 +24 +29 комфорт 1014.7 979.9
12 20.02 СВ 4 10 км пыль 9/0
[Ci sp]
+33.3 -4.3 9 +29 +40 жарко 1012.6 978.1
15 20.02 В 2 8000 м пыль 9/0
[Ci sp]
+35.3 -2.6 9 +31 +39 жарко 1009.3 974.8
18 20.02 СВ 42 8000 м пыль 9/0
[Ci sp]
+32.4 +5.3 18 +30 +30 жарко 1009.8 975.1 +36.4
00 21.02 СВ 2 8000 м пыль 9/0
[Ci sp]
+24.3 -0.1 20 +23 +23 комфорт 1011.3 977.0
03 21.02 СВ 2 8000 м пыль 9/0
[Ci sp]
+22.1 -1.3 21 +21 +21 комфорт 1010.2 975.8
06 21.02 С 2 8000 м пыль 9/0
[Ci sp]
+20.7 -3.2 20 +21 +21 комфорт 1010.8 976.3 +20.7
09 21.02 В 5 8000 м пыль 9/0
[Ci sp]
+28.0 -9.2 8 +24 +28 комфорт 1012.6 978.1
12 21.02 СВ 4 8000 м пыль 9/0
[Ci sp]
+34.0 -2.5 10 +30 +41 жарко 1011.1 976.8
15 21.02 В 1 8000 м пыль 9/0
[Ci sp]
+36.2 -0.3 10 +32 +41 жарко 1008.0 973.8
18 21.02 В 1 8000 м пыль 9/0
[Ci sp]
+34.3 +4.9 16 +32 +32 жарко 1008.6 974.2 +36.8
00 22.02 СВ 2 10 км 9/0
[Ci sp]
+25.6 +1.2 20 +24 +24 комфорт 1010.9 976.8
03 22.02 СВ 2 10 км 9/0
[Ci sp]
+23.3 +1.6 24 +23 +23 комфорт 1009.6 975.4
06 22.02 СВ 2 10 км 9/0
[Ci sp]
+21.9 +0.2 24 +21 +21 комфорт 1010.3 976.0 +21.9
09 22.02 СВ 6 4000 м пыль 9/0
[Ci sp]
+29.4 -9.3 7 +25 +28 комфорт 1011.8 977.5
12 22.02 В 5 4000 м пыль 9/0 1500 м
[]
+35.1 -5.0 7 +31 +36 жарко 1010.3 976.1
15 22.02 С 2 4000 м пыль 9/0
[Ci sp]
+37.4 -1.0 9 +34 +41 очень
жарко
1007.5 978.4
18 22.02 С 2 4000 м пыль 9/0
[Ci sp]
+34.2 +0.9 12 +31 +31 жарко 1008.3 974.0 +38.2
00 23.02 С 1 6000 м 9/0
[Ci sp]
+26.4 -0.1 18 +25 +25 комфорт 1010.2 976.1
03 23.02 СВ 2 6000 м пыль 9/0
[Ci sp]
+24.2 -0.3 20 +23 +23 комфорт 1008.7 974.7
06 23.02 С 1 6000 м пыль 9/0
[Ci sp]
+22.4 -0.3 22 +22 +22 комфорт 1009.3 975.0 +22.4
09 23.02 В 2 3000 м пыль 9/0
[Ci sp]
+29.4 -0.8 14 +27 +34 жарко 1011.2 976.9
12 23.02 В 2 3000 м пыль 9/0
[Ci sp]
+36.6 -2.6 8 +33 +48 жарко 1009.1 975.1
15 23.02 Ю 2 4000 м пыль 9/0
[Ci sp]
+38.5 +3.8 12 +35 +43 очень
жарко
1006.2 972.3
18 23.02 СВ 1 4000 м пыль 9/0
[Ci sp]
+35.4 +7.2 18 +33 +33 жарко 1007.3 973.1 +39.1
00 24.02 С 2 6000 м пыль 9/0
[Ci sp]
+28.1 +4.6 22 +27 +27 жарко 1009.1 975.3
03 24.02 С 2 6000 м пыль 9/0
[Ci sp]
+26.4 +2.2 21 +25 +25 комфорт 1007.9 974.1

 

Местоположение метеостанции Fada N`Gourma (Буркина-Фасо): широта 12.03 долгота 0.37 высота над уровнем моря 309 м.

В архиве по умолчанию представлена погода в Fada N`Gourma за последнюю неделю. Архивные данные за месяц целиком и за предыдущие месяцы, начиная с января 2011 года, Вы можете получить, выбрав интересующий диапазон дат из раскрывающегося списка и нажав кнопку "Ввод!".

Внимание! Время в таблицах - всемирное. Для получения местного времени необходимо прибавить поправку, которая в Fada N`Gourma равна 0 ч.

Смотрите также архив погоды в соседних городах и на ближайших метеорологических станциях:

Погода в Dapaon (Того) (129 км)
Погода в Mango (Того) (185 км)
Погода в Po (Буркина-Фасо) (192 км)
Погода в Navrongo (Гана) (204 км)
Погода в Ouagadougou (Буркина-Фасо) (209 км)
Погода в Natitingou (Бенин) (220 км)
Погода в Dori (Буркина-Фасо) (227 км)
Погода в Niamey-Aero (Нигер) (253 км)
Погода в Niamtougou (Того) (264 км)
Погода в Tillabery (Нигер) (268 км)

Пояснения к столбцам:

Ветер - указаны скорость ветра в м/с - средняя за 10 мин, порывы в срок и между сроками (в фигурных скобках) и направление, откуда дует ветер: С - северный, СВ - северо-восточный, В - восточный, ЮВ - юго-восточный, Ю - южный, ЮЗ - юго-западный, З - западный, СЗ - северо-западный.
Видимость - горизонтальная дальность видимости в метрах или километрах. При видимости от 1 до 10 км при отсутствии осадков обычно наблюдается дымка, при ухудшении видимости до 1 км и менее - туман. В сухую погоду видимость может ухудшаться дымом, пылью или мглою.
Явления - указаны атмосферные явления, наблюдавшиеся в срок или в последний час перед сроком; фигурными скобками обозначены явления, наблюдавшиеся между сроками (за 1-3 часа до срока); квадратными скобками обозначены град или гололедные отложения с указанием их диаметра в мм.
Облачность - указаны через наклонную черту общая и нижняя облачность в баллах и высота нижней границы облаков в метрах; квадратными скобками обозначены формы облаков: Ci - перистые, Cs - перисто-слоистые, Cc - перисто-кучевые, Ac - высококучевые, As - высокослоистые, Sc - слоисто-кучевые, Ns - слоисто-дождевые, Cu - кучевые, Cb - кучево-дождевые. Подробнее классификацию облаков см. в Атласе облаков (PDF).
T - Температура воздуха - температура, измеренная на высоте 2 м над землей.
Td - Температура точки росы - температура, при понижении до которой содержащийся в воздухе водяной пар достигнет насыщения.
f - Относительная влажность воздуха - влажноcть воздуха, измеренная на высоте 2 м над землей.
Te - Эффективная температура - температура, которую ощущает одетый по сезону человек в тени. Характеристика душности погоды. При расчете учитывается влияние влажности воздуха и скорости ветра на теплоощущения человека.
Tes - Эффективная температура на солнце - температура, которую ощущает человек, с поправкой на солнечный нагрев. Характеристика знойности погоды. Зависит от высоты солнца над горизонтом, облачности и скорости ветра. Ночью, в пасмурную погоду, а также при ветре 12 м/с и более поправка равна нулю.
P - Атмосферное давление - приведенное к уровню моря атмосферное давление.
Po - Атмосферное давление - измеренное на уровне метеостанции атмосферное давление.
Tmin - Минимальная температура - минимум температуры воздуха на высоте 2 м над землей.
Tmax - Максимальная температура - максимум температуры воздуха на высоте 2 м над землей.
R - Количество осадков - Количество выпавших осадков, мм. При наведении курсора мыши на число - период времени, за который выпало указанное количество осадков.
S - Снежный покров - Высота снежного покрова, см. При наведении курсора мыши на число - состояние снежного покрова и степень покрытия местности в баллах.